Terminal Aerodrome Forecast
Issued by NWS

Home | Current Version | Previous Version | Text Only | Print | Product List | Glossary On
Versions: 1 2 3 4 5 6 7 8 9 10 11 12 13 14 15 16 17 18 19 20 21 22 23 24 25 26 27 28 29 30 31 32 33 34 35 36 37 38 39 40 41 42 43 44 45 46 47 48 49 50
000
FTUS41 KCTP 271444 AAB
TAFJST
TAF AMD
KJST 271444Z 2715/2812 30006KT 2SM -SN BR SCT004 OVC009
      TEMPO 2715/2717 3/4SM -SN OVC004
     FM271700 30010KT 6SM -SHSN HZ BKN015 OVC025
     FM272000 29009G15KT 1 1/2SM -SN BKN008 OVC015
     FM280000 29013G24KT 1SM -SN BR OVC007=

USA.gov is the U.S. government's official web portal to all federal, state and local government web resources and services.